﻿_id,日時,平均風速(m/s),平均風向,最大瞬間風速(m/s),最大風速時風向,気温(℃),湿度(%),10分間移動積算雨量(mm),1時間移動積算雨量(mm),日雨量(mm),累計雨量(mm)
1,2020-09-07T00:00:00,0.8,東南東,2.7,南南東,23.2,97.2,0,0,20.5,50
2,2020-09-07T00:01:00,0.9,東,2.7,南南東,23.2,97.2,0,0,0,50
3,2020-09-07T00:02:00,1,東,2.7,南南東,23.2,97.2,0,0,0,50
4,2020-09-07T00:03:00,1.1,東,2.7,南南東,23.2,97.2,0,0,0,50
5,2020-09-07T00:04:00,1.1,東,2.3,東南東,23.3,97.4,0,0,0,50
6,2020-09-07T00:05:00,1,東,2.3,東南東,23.3,97.4,0,0,0,50
7,2020-09-07T00:06:00,1,東,2.3,東南東,23.3,97.3,0,0,0,50
8,2020-09-07T00:07:00,0.9,東,2.3,東南東,23.2,97.2,0,0,0,50
9,2020-09-07T00:08:00,0.9,東,2.3,東南東,23.2,97,0,0,0,50
10,2020-09-07T00:09:00,0.8,東,2.3,東南東,23.2,97.1,0,0,0,50
11,2020-09-07T00:10:00,0.7,東,2.3,東南東,23.2,97.1,0,0,0,50
12,2020-09-07T00:11:00,0.6,東,2.3,東南東,23.3,97.2,0,0,0,50
13,2020-09-07T00:12:00,0.5,東,2,南南東,23.2,97.2,0,0,0,50
14,2020-09-07T00:13:00,0.3,東,1.9,南,23.2,97.1,0,0,0,50
15,2020-09-07T00:14:00,0.3,東,1.2,南西,23.1,97,0,0,0,50
16,2020-09-07T00:15:00,0.5,南東,1.4,西南西,23.1,97,0,0,0,50
17,2020-09-07T00:16:00,0.5,南西,1.5,西,23.2,97.1,0,0,0,50
18,2020-09-07T00:17:00,0.6,西南西,1.5,西,23.1,97,0,0,0,50
19,2020-09-07T00:18:00,0.7,南西,1.5,西,23.1,97,0,0,0,50
20,2020-09-07T00:19:00,0.7,南西,1.5,西,23.1,97,0,0,0,50
21,2020-09-07T00:20:00,0.8,南西,1.5,西,23.1,97.1,0,0,0,50
22,2020-09-07T00:21:00,0.9,南西,1.5,西,23.1,97.1,0,0,0,50
23,2020-09-07T00:22:00,1,南西,1.5,西,23.1,97.1,0,0,0,50
24,2020-09-07T00:23:00,1,南西,1.5,西,23.1,97,0,0,0,50
25,2020-09-07T00:24:00,1,南西,1.5,西,23.1,97.1,0,0,0,50
26,2020-09-07T00:25:00,0.9,西南西,1.5,西,23.1,97.2,0,0,0,50
27,2020-09-07T00:26:00,0.9,西南西,1.4,南南西,23.2,97.2,0,0,0,50
28,2020-09-07T00:27:00,0.9,西南西,1.4,南南西,23.2,97.2,0,0,0,50
29,2020-09-07T00:28:00,0.9,西南西,1.4,南南西,23.1,97,0,0,0,50
30,2020-09-07T00:29:00,0.9,西南西,1.4,南南西,23,96.9,0,0,0,50
31,2020-09-07T00:30:00,0.9,西南西,1.7,南西,23,96.9,0,0,0,50
32,2020-09-07T00:31:00,0.9,西南西,1.7,南西,23,96.9,0,0,0,50
33,2020-09-07T00:32:00,0.9,西南西,1.7,南西,23,97,0,0,0,50
34,2020-09-07T00:33:00,1,西南西,1.9,南南西,23.1,97.2,0,0,0,50
35,2020-09-07T00:34:00,1.1,南西,2,南南西,23.1,97.3,0,0,0,50
36,2020-09-07T00:35:00,1.2,南西,2,南南西,23.1,97.1,0,0,0,50
37,2020-09-07T00:36:00,1.2,南西,2,南南西,23.1,97.1,0,0,0,50
38,2020-09-07T00:37:00,1.1,南西,2,南南西,23.1,97.1,0,0,0,50
39,2020-09-07T00:38:00,1.1,南南西,2,南南西,23.1,97.1,0,0,0,50
40,2020-09-07T00:39:00,1.1,南南西,2,南南西,23.1,97.3,0,0,0,50
41,2020-09-07T00:40:00,1.1,南南西,2,南南西,23.1,97.2,0,0,0,50
42,2020-09-07T00:41:00,1,南南西,2,南南西,23.5,97.6,0,0,0,50
43,2020-09-07T00:42:00,1,南南西,2,南南西,23.3,97.4,0,0,0,50
44,2020-09-07T00:43:00,0.9,南南西,2,南南西,23.2,97.1,0,0,0,50
45,2020-09-07T00:44:00,0.7,南南西,1.8,南西,23.2,96.9,0,0,0,50
46,2020-09-07T00:45:00,0.7,南南西,1.5,西,23.2,97,0,0,0,50
47,2020-09-07T00:46:00,0.7,南南西,1.5,西,23.2,97,0,0,0,50
48,2020-09-07T00:47:00,0.8,南南西,1.7,南,23.2,96.9,0,0,0,50
49,2020-09-07T00:48:00,0.8,南南西,1.9,南,23.2,97,0,0,0,50
50,2020-09-07T00:49:00,0.9,南南西,1.9,南,23.2,96.9,0,0,0,50
51,2020-09-07T00:50:00,0.9,南南西,2.1,南西,23.1,96.8,0,0,0,50
52,2020-09-07T00:51:00,1,南南西,2.6,西南西,23.1,96.7,0,0,0,50
53,2020-09-07T00:52:00,1.1,南南西,2.8,西南西,23.3,97.1,0,0,0,50
54,2020-09-07T00:53:00,1.2,南南西,2.8,西南西,23.3,97.2,0,0,0,50
55,2020-09-07T00:54:00,1.3,南南西,2.8,西南西,23.4,97.2,0,0,0,50
56,2020-09-07T00:55:00,1.2,南南西,2.8,西南西,23.4,97.1,0,0,0,50
57,2020-09-07T00:56:00,1.2,南南西,2.8,西南西,23.3,96.9,0,0,0,50
58,2020-09-07T00:57:00,1.1,南南西,2.8,西南西,23.3,96.8,0,0,0,50
59,2020-09-07T00:58:00,1,南南西,2.8,西南西,23.3,96.9,0,0,0,50
60,2020-09-07T00:59:00,1,南,2.8,西南西,23.3,96.9,0,0,0,50
61,2020-09-07T01:00:00,0.9,南東,2.8,西南西,23.3,96.9,0,0,0,50
62,2020-09-07T01:01:00,0.8,東南東,2.8,西南西,23.3,96.9,0,0,0,50
63,2020-09-07T01:02:00,0.8,東南東,1.8,西南西,23.3,96.8,0,0,0,50
64,2020-09-07T01:03:00,0.7,東,1.6,南西,23.3,96.8,0,0,0,50
65,2020-09-07T01:04:00,0.7,東,1.4,東南東,23.3,96.9,0,0,0,50
66,2020-09-07T01:05:00,0.8,東,1.6,東,23.3,96.9,0,0,0,50
67,2020-09-07T01:06:00,0.9,東,1.6,東,23.3,97,0,0,0,50
68,2020-09-07T01:07:00,0.9,東,1.6,東,23.3,97,0,0,0,50
69,2020-09-07T01:08:00,1,東,1.7,東南東,23.3,97,0,0,0,50
70,2020-09-07T01:09:00,1,東,1.7,東南東,23.3,97,0,0,0,50
71,2020-09-07T01:10:00,1.1,東,1.8,東南東,23.3,97,0,0,0,50
72,2020-09-07T01:11:00,1.1,東,1.8,東南東,23.3,97,0,0,0,50
73,2020-09-07T01:12:00,1,東,1.8,東南東,23.3,97.1,0,0,0,50
74,2020-09-07T01:13:00,1.1,東,1.8,東南東,23.3,97,0,0,0,50
75,2020-09-07T01:14:00,1.1,東,1.8,東南東,23.3,97,0,0,0,50
76,2020-09-07T01:15:00,1.1,東,1.8,東南東,23.3,97,0,0,0,50
77,2020-09-07T01:16:00,1.1,東,1.8,東南東,23.3,97,0,0,0,50
78,2020-09-07T01:17:00,1.1,東,1.8,東南東,23.3,97.1,0,0,0,50
79,2020-09-07T01:18:00,1,東,1.8,東南東,23.3,97.1,0,0,0,50
80,2020-09-07T01:19:00,0.9,東,1.8,東南東,23.3,97.2,0,0,0,50
81,2020-09-07T01:20:00,0.8,東,1.7,東,23.3,97.1,0,0,0,50
82,2020-09-07T01:21:00,0.9,東,1.7,東,23.2,97,0,0,0,50
83,2020-09-07T01:22:00,0.9,東,1.7,東,23.2,97,0,0,0,50
84,2020-09-07T01:23:00,0.9,東,1.7,東,23.2,97,0,0,0,50
85,2020-09-07T01:24:00,0.9,東,2.2,東南東,23.2,97.1,0,0,0,50
86,2020-09-07T01:25:00,1,東,2.2,東南東,23.2,97.1,0,0,0,50
87,2020-09-07T01:26:00,0.9,東,2.2,東南東,23.2,97.1,0,0,0,50
88,2020-09-07T01:27:00,1,東,2.2,東南東,23.2,97.1,0,0,0,50
89,2020-09-07T01:28:00,1.1,東北東,2.2,東南東,23.2,97,0,0,0,50
90,2020-09-07T01:29:00,1.2,東,2.7,東南東,23.2,97.1,0,0,0,50
91,2020-09-07T01:30:00,1.3,東,2.7,東南東,23.2,97.1,0.5,0.5,0.5,50.5
92,2020-09-07T01:31:00,1.4,東,2.7,東南東,23.2,97,0.5,0.5,0.5,50.5
93,2020-09-07T01:32:00,1.4,東,2.7,東南東,23.1,97,0.5,0.5,0.5,50.5
94,2020-09-07T01:33:00,1.4,東,2.7,東南東,23.2,97,0.5,0.5,0.5,50.5
95,2020-09-07T01:34:00,1.4,東北東,2.7,東南東,23.2,97.1,0.5,0.5,0.5,50.5
96,2020-09-07T01:35:00,1.5,東北東,2.7,東南東,23.2,97.1,0.5,0.5,0.5,50.5
97,2020-09-07T01:36:00,1.5,東北東,2.7,東南東,23.2,97.1,0.5,0.5,0.5,50.5
98,2020-09-07T01:37:00,1.4,東北東,2.7,東南東,23.2,97,0.5,0.5,0.5,50.5
99,2020-09-07T01:38:00,1.4,東北東,2.7,東南東,23.2,96.9,0.5,0.5,0.5,50.5
100,2020-09-07T01:39:00,1.4,東北東,2.3,東南東,23.2,97,0.5,0.5,0.5,50.5
101,2020-09-07T01:40:00,1.3,東北東,2.2,東北東,23.2,97,0,0.5,0.5,50.5
102,2020-09-07T01:41:00,1.2,東北東,2.1,東北東,23.2,97,0,0.5,0.5,50.5
103,2020-09-07T01:42:00,1.1,東北東,2.1,東北東,23.2,97,0,0.5,0.5,50.5
104,2020-09-07T01:43:00,1.1,東北東,2.1,東北東,23.2,96.9,0,0.5,0.5,50.5
105,2020-09-07T01:44:00,1.1,東北東,2,東北東,23.2,96.9,0,0.5,0.5,50.5
106,2020-09-07T01:45:00,1,東北東,1.9,東北東,23.2,96.9,0,0.5,0.5,50.5
107,2020-09-07T01:46:00,0.9,東北東,1.9,東北東,23.3,97.1,0,0.5,0.5,50.5
108,2020-09-07T01:47:00,0.9,東北東,1.9,東北東,23.2,96.9,0,0.5,0.5,50.5
109,2020-09-07T01:48:00,0.9,東北東,1.9,東北東,23.2,96.8,0,0.5,0.5,50.5
110,2020-09-07T01:49:00,1,東北東,1.9,東北東,23.2,96.8,0,0.5,0.5,50.5
111,2020-09-07T01:50:00,1,北東,1.9,東北東,23.2,96.8,0,0.5,0.5,50.5
112,2020-09-07T01:51:00,1,北東,1.9,東北東,23.3,96.8,0,0.5,0.5,50.5
113,2020-09-07T01:52:00,1,北東,1.9,東北東,23.3,96.8,0,0.5,0.5,50.5
114,2020-09-07T01:53:00,1,東北東,1.9,東北東,23.5,97,0,0.5,0.5,50.5
115,2020-09-07T01:54:00,0.9,東北東,1.8,北北東,23.5,97,0,0.5,0.5,50.5
116,2020-09-07T01:55:00,0.9,北東,2.2,北北東,23.4,96.6,0,0.5,0.5,50.5
117,2020-09-07T01:56:00,0.9,北東,2.2,北北東,23.4,96.6,0,0.5,0.5,50.5
118,2020-09-07T01:57:00,0.9,東北東,2.2,北北東,23.4,96.6,0,0.5,0.5,50.5
119,2020-09-07T01:58:00,0.8,北東,2.2,北北東,23.4,96.7,0,0.5,0.5,50.5
120,2020-09-07T01:59:00,0.8,北東,2.2,北北東,23.4,96.7,0,0.5,0.5,50.5
121,2020-09-07T02:00:00,0.7,北東,2.2,北北東,23.4,96.6,0,0.5,0.5,50.5
122,2020-09-07T02:01:00,0.8,北東,2.2,北北東,23.4,96.6,0,0.5,0.5,50.5
123,2020-09-07T02:02:00,0.9,北北東,2.8,北,23.4,96.6,0,0.5,0.5,50.5
124,2020-09-07T02:03:00,1,北北東,2.8,北,23.4,96.7,0,0.5,0.5,50.5
125,2020-09-07T02:04:00,1,北,2.8,北,23.4,96.6,0,0.5,0.5,50.5
126,2020-09-07T02:05:00,1,北,2.8,北,23.5,96.6,0,0.5,0.5,50.5
127,2020-09-07T02:06:00,1,北北東,2.8,北,23.5,96.6,0,0.5,0.5,50.5
128,2020-09-07T02:07:00,1.2,北,2.8,北,23.5,96.6,0,0.5,0.5,50.5
129,2020-09-07T02:08:00,1.3,北北東,2.8,北,23.5,96.5,0,0.5,0.5,50.5
130,2020-09-07T02:09:00,1.3,北北東,2.8,北,23.6,96.4,0,0.5,0.5,50.5
131,2020-09-07T02:10:00,1.3,北北東,2.8,北,23.6,96.4,0,0.5,0.5,50.5
132,2020-09-07T02:11:00,1.4,北北東,2.8,北,23.6,96.3,0,0.5,0.5,50.5
133,2020-09-07T02:12:00,1.3,北北東,2.8,北北東,23.7,96.2,0,0.5,0.5,50.5
134,2020-09-07T02:13:00,1.2,北北東,2.8,北北東,23.7,96.1,0,0.5,0.5,50.5
135,2020-09-07T02:14:00,1.1,北北東,2.8,北北東,23.7,96,0,0.5,0.5,50.5
136,2020-09-07T02:15:00,1.2,北北東,2.8,北北東,23.7,95.9,0,0.5,0.5,50.5
137,2020-09-07T02:16:00,1.2,北北東,2.8,北北東,23.7,95.9,0,0.5,0.5,50.5
138,2020-09-07T02:17:00,1.1,北北東,2.8,北北東,23.7,95.9,0,0.5,0.5,50.5
139,2020-09-07T02:18:00,1.1,北東,2.8,北北東,23.8,95.8,0,0.5,0.5,50.5
140,2020-09-07T02:19:00,1,北東,2.8,北北東,23.8,95.8,0,0.5,0.5,50.5
141,2020-09-07T02:20:00,1,北東,2.8,北北東,23.7,95.7,0,0.5,0.5,50.5
142,2020-09-07T02:21:00,0.8,東北東,1.9,北北東,23.6,95.9,0,0.5,0.5,50.5
143,2020-09-07T02:22:00,0.8,南,1.7,南東,23.5,95.9,0,0.5,0.5,50.5
144,2020-09-07T02:23:00,0.7,南東,1.7,南東,23.5,96,0,0.5,0.5,50.5
145,2020-09-07T02:24:00,0.8,東,1.7,南東,23.5,96.1,0,0.5,0.5,50.5
146,2020-09-07T02:25:00,0.7,南東,1.7,南東,23.6,96.3,0,0.5,0.5,50.5
147,2020-09-07T02:26:00,0.7,南東,1.7,南東,23.5,96.2,0,0.5,0.5,50.5
148,2020-09-07T02:27:00,0.8,南東,2.2,北東,23.5,96.4,0,0.5,0.5,50.5
149,2020-09-07T02:28:00,0.9,南東,3.2,北東,23.5,96.4,0,0.5,0.5,50.5
150,2020-09-07T02:29:00,1,東南東,3.2,北東,23.6,96.5,0,0.5,0.5,50.5
151,2020-09-07T02:30:00,1,東南東,3.2,北東,23.7,96.7,0,0,0.5,50.5
152,2020-09-07T02:31:00,1.1,東南東,3.2,北東,23.6,96.3,0,0,0.5,50.5
153,2020-09-07T02:32:00,1.1,東南東,3.2,北東,23.6,96.3,0,0,0.5,50.5
154,2020-09-07T02:33:00,1.1,東南東,3.2,北東,23.5,96.4,0,0,0.5,50.5
155,2020-09-07T02:34:00,1.2,東,3.2,北東,23.6,96.5,0,0,0.5,50.5
156,2020-09-07T02:35:00,1.2,東,3.2,北東,23.7,96.5,0,0,0.5,50.5
157,2020-09-07T02:36:00,1.1,東北東,3.2,北東,23.8,96.5,0,0,0.5,50.5
158,2020-09-07T02:37:00,1,東,3.2,北東,23.8,96.2,0,0,0.5,50.5
159,2020-09-07T02:38:00,0.9,東,2.6,東北東,23.8,96.1,0,0,0.5,50.5
160,2020-09-07T02:39:00,0.9,東南東,2.1,南南東,23.7,96,0,0,0.5,50.5
161,2020-09-07T02:40:00,0.9,東南東,2.1,南南東,23.7,96.2,0,0,0.5,50.5
162,2020-09-07T02:41:00,0.8,東,2.1,南南東,23.8,96.3,0,0,0.5,50.5
163,2020-09-07T02:42:00,0.8,東,2.1,南南東,23.9,96.2,0,0,0.5,50.5
164,2020-09-07T02:43:00,0.9,東北東,2.1,南南東,23.9,96.1,0,0,0.5,50.5
165,2020-09-07T02:44:00,0.8,東北東,2.1,南南東,23.9,95.8,0,0,0.5,50.5
166,2020-09-07T02:45:00,0.8,東,2.1,南南東,23.9,95.6,0,0,0.5,50.5
167,2020-09-07T02:46:00,0.9,東,2.1,南南東,23.8,95.5,0,0,0.5,50.5
168,2020-09-07T02:47:00,0.9,東北東,2.1,南南東,23.8,95.6,0,0,0.5,50.5
169,2020-09-07T02:48:00,0.8,東北東,1.6,南南西,23.9,95.7,0,0,0.5,50.5
170,2020-09-07T02:49:00,0.8,東北東,1.7,北東,24,95.7,0,0,0.5,50.5
171,2020-09-07T02:50:00,0.9,東北東,1.9,北東,24.1,95.5,0,0,0.5,50.5
172,2020-09-07T02:51:00,1,東北東,1.9,北東,24,95.2,0,0,0.5,50.5
173,2020-09-07T02:52:00,1,北東,2.2,北北東,24,95.2,0,0,0.5,50.5
174,2020-09-07T02:53:00,1.1,北東,2.2,北北東,24,95.2,0,0,0.5,50.5
175,2020-09-07T02:54:00,1.2,北東,2.2,北北東,23.9,95.3,0,0,0.5,50.5
176,2020-09-07T02:55:00,1.2,北東,2.2,北北東,23.8,95.5,0,0,0.5,50.5
177,2020-09-07T02:56:00,1.1,北東,2.2,北北東,23.9,95.7,0,0,0.5,50.5
178,2020-09-07T02:57:00,1.1,北東,2.2,北北東,24,95.9,0,0,0.5,50.5
179,2020-09-07T02:58:00,1.1,北東,2.2,北北東,24,95.9,0,0,0.5,50.5
180,2020-09-07T02:59:00,1.1,北北東,2.2,北北東,23.9,95.7,0,0,0.5,50.5
181,2020-09-07T03:00:00,1,北,2.2,北北東,23.8,95.8,0,0,0.5,50.5
182,2020-09-07T03:01:00,0.9,北北西,2.2,北北東,23.9,95.9,0,0,0.5,50.5
183,2020-09-07T03:02:00,0.8,北,1.9,北北東,23.9,96,0,0,0.5,50.5
184,2020-09-07T03:03:00,0.7,北北西,1.7,北北東,24,96,0,0,0.5,50.5
185,2020-09-07T03:04:00,0.8,北北西,2.2,北東,24.1,95.8,0,0,0.5,50.5
186,2020-09-07T03:05:00,0.8,北北西,2.2,北東,24.3,95.5,0,0,0.5,50.5
187,2020-09-07T03:06:00,0.8,北北西,2.2,北東,24.5,94.8,0,0,0.5,50.5
188,2020-09-07T03:07:00,0.9,北,2.2,北東,24.6,93.9,0,0,0.5,50.5
189,2020-09-07T03:08:00,1,北北東,2.6,北東,24.5,93.3,0,0,0.5,50.5
190,2020-09-07T03:09:00,1.1,北東,2.6,北東,24.4,93.4,0,0,0.5,50.5
191,2020-09-07T03:10:00,1.3,北東,3.7,東,24.4,93.8,0,0,0.5,50.5
192,2020-09-07T03:11:00,1.5,北東,4.1,東北東,24.7,93.4,0,0,0.5,50.5
193,2020-09-07T03:12:00,1.7,北東,4.1,東北東,24.9,91.5,0,0,0.5,50.5
194,2020-09-07T03:13:00,1.7,東北東,4.1,東北東,24.6,90.9,0,0,0.5,50.5
195,2020-09-07T03:14:00,1.8,東北東,4.1,東北東,24.5,92,0,0,0.5,50.5
196,2020-09-07T03:15:00,1.8,東北東,4.1,東北東,24.3,92.9,0,0,0.5,50.5
197,2020-09-07T03:16:00,1.7,東北東,4.1,東北東,24.6,93.4,0,0,0.5,50.5
198,2020-09-07T03:17:00,1.7,東北東,4.1,東北東,24.8,92.4,0,0,0.5,50.5
199,2020-09-07T03:18:00,1.7,東北東,4.1,東北東,25.2,90.7,0,0,0.5,50.5
200,2020-09-07T03:19:00,1.7,東北東,4.1,東北東,25.2,89.3,0,0,0.5,50.5
201,2020-09-07T03:20:00,1.6,東北東,4.1,東北東,25.1,89.1,0,0,0.5,50.5
202,2020-09-07T03:21:00,1.5,東北東,3.4,南南西,25.1,89.4,0,0,0.5,50.5
203,2020-09-07T03:22:00,1.3,東北東,3.4,南南西,25.2,88.9,0,0,0.5,50.5
204,2020-09-07T03:23:00,1.3,東北東,3.4,南南西,25.3,88.2,0,0,0.5,50.5
205,2020-09-07T03:24:00,1.2,東北東,2.6,南南西,25.3,88.1,0,0,0.5,50.5
206,2020-09-07T03:25:00,1.3,北東,2.5,北北東,25.1,88.3,0,0,0.5,50.5
207,2020-09-07T03:26:00,1.5,北東,6,北北東,25.1,88.8,0,0,0.5,50.5
208,2020-09-07T03:27:00,1.7,北東,6,北北東,25.5,88.4,0,0,0.5,50.5
209,2020-09-07T03:28:00,1.7,北東,6,北北東,25.7,86.8,0,0,0.5,50.5
210,2020-09-07T03:29:00,1.8,北東,6,北北東,25.6,86.4,0,0,0.5,50.5
211,2020-09-07T03:30:00,1.7,東北東,6,北北東,25.7,86.2,0,0,0.5,50.5
212,2020-09-07T03:31:00,1.7,東北東,6,北北東,25.8,85.6,0,0,0.5,50.5
213,2020-09-07T03:32:00,1.7,東北東,6,北北東,25.8,85.1,0,0,0.5,50.5
214,2020-09-07T03:33:00,1.8,東北東,6,北北東,25.7,85.1,0,0,0.5,50.5
215,2020-09-07T03:34:00,1.7,東,6,北北東,25.7,85.2,0,0,0.5,50.5
216,2020-09-07T03:35:00,1.7,東南東,6,北北東,26,84.6,0,0,0.5,50.5
217,2020-09-07T03:36:00,1.8,東南東,5.4,東南東,26.3,83.3,0,0,0.5,50.5
218,2020-09-07T03:37:00,1.7,東南東,5.4,東南東,26.3,82.8,0,0,0.5,50.5
219,2020-09-07T03:38:00,1.8,南東,5.4,東南東,26.3,82.7,0,0,0.5,50.5
220,2020-09-07T03:39:00,1.8,南東,5.4,東南東,26.4,82.2,0,0,0.5,50.5
221,2020-09-07T03:40:00,2.1,南東,5.6,南東,26.6,81.4,0,0,0.5,50.5
222,2020-09-07T03:41:00,2.1,南東,5.6,南東,26.5,80.8,0,0,0.5,50.5
223,2020-09-07T03:42:00,2.2,東南東,5.6,南東,26.5,80.9,0,0,0.5,50.5
224,2020-09-07T03:43:00,2.3,東南東,5.6,南東,26.6,80.5,0,0,0.5,50.5
225,2020-09-07T03:44:00,2.4,東南東,5.6,南東,26.7,80.2,0,0,0.5,50.5
226,2020-09-07T03:45:00,2.6,東,5.6,南東,26.7,80.1,0,0,0.5,50.5
227,2020-09-07T03:46:00,2.6,東,5.6,南東,26.7,79.7,0,0,0.5,50.5
228,2020-09-07T03:47:00,2.7,東,5.6,南東,26.8,79.3,0,0,0.5,50.5
229,2020-09-07T03:48:00,2.8,東,5.6,南東,27,78.6,0,0,0.5,50.5
230,2020-09-07T03:49:00,2.9,東,5.9,東南東,26.9,78.3,0,0,0.5,50.5
231,2020-09-07T03:50:00,2.9,東,6,東南東,26.8,78.8,0,0,0.5,50.5
232,2020-09-07T03:51:00,3,東,6,東南東,26.8,78.7,0,0,0.5,50.5
233,2020-09-07T03:52:00,2.9,東,6,東南東,26.7,79.1,0,0,0.5,50.5
234,2020-09-07T03:53:00,2.9,東,6,東南東,26.8,79.3,0,0,0.5,50.5
235,2020-09-07T03:54:00,2.9,東,6,東南東,26.7,79.3,0,0,0.5,50.5
236,2020-09-07T03:55:00,2.9,東,6.9,南南東,26.8,79.4,0,0,0.5,50.5
237,2020-09-07T03:56:00,3,東,6.9,南南東,26.8,79.1,0,0,0.5,50.5
238,2020-09-07T03:57:00,2.9,東,6.9,南南東,27,78.5,0,0,0.5,50.5
239,2020-09-07T03:58:00,3,東,6.9,南南東,26.7,79.1,0,0,0.5,50.5
240,2020-09-07T03:59:00,2.7,東,6.9,南南東,26.5,79.9,0,0,0.5,50.5
241,2020-09-07T04:00:00,2.5,東,6.9,南南東,26.5,80.4,0,0,0.5,50.5
242,2020-09-07T04:01:00,2.8,東,7.2,東南東,26.6,80.3,0,0,0.5,50.5
243,2020-09-07T04:02:00,3,東南東,7.2,東南東,26.5,80.7,0,0,0.5,50.5
244,2020-09-07T04:03:00,2.9,東南東,7.2,東南東,26.4,81.3,0,0,0.5,50.5
245,2020-09-07T04:04:00,2.8,東南東,7.2,東南東,26.3,81.7,0,0,0.5,50.5
246,2020-09-07T04:05:00,2.6,南東,7.2,東南東,26.3,82.3,0,0,0.5,50.5
247,2020-09-07T04:06:00,2.7,南東,8.5,南南東,26.4,82.1,0,0,0.5,50.5
248,2020-09-07T04:07:00,2.7,南東,8.5,南南東,26.6,81.2,0,0,0.5,50.5
249,2020-09-07T04:08:00,2.8,南東,8.5,南南東,26.6,81.1,0,0,0.5,50.5
250,2020-09-07T04:09:00,2.8,東南東,8.5,南南東,26.5,81.3,0,0,0.5,50.5
251,2020-09-07T04:10:00,2.7,東南東,8.5,南南東,26.4,81.7,0,0,0.5,50.5
252,2020-09-07T04:11:00,2.3,東南東,8.5,南南東,26.3,82,0,0,0.5,50.5
253,2020-09-07T04:12:00,2.2,東南東,8.5,南南東,26.2,82.6,0,0,0.5,50.5
254,2020-09-07T04:13:00,2.1,東,8.5,南南東,26.1,83.3,0,0,0.5,50.5
255,2020-09-07T04:14:00,2,東,8.5,南南東,26,83.8,0,0,0.5,50.5
256,2020-09-07T04:15:00,1.9,東,8.5,南南東,26,84.1,0,0,0.5,50.5
257,2020-09-07T04:16:00,1.6,東,5.4,東南東,26.2,83.8,0,0,0.5,50.5
258,2020-09-07T04:17:00,1.3,東,4.9,東南東,26.3,83.6,0,0,0.5,50.5
259,2020-09-07T04:18:00,1.2,東北東,3.1,北北東,26.3,83.2,0,0,0.5,50.5
260,2020-09-07T04:19:00,1.2,東北東,3.1,北北東,26.2,83.2,0,0,0.5,50.5
261,2020-09-07T04:20:00,1.1,東,3.1,北北東,26.1,83.4,0,0,0.5,50.5
262,2020-09-07T04:21:00,1.1,東,3.1,北北東,26,84.3,0,0,0.5,50.5
263,2020-09-07T04:22:00,1.1,東,3.1,北北東,25.9,84.7,0,0,0.5,50.5
264,2020-09-07T04:23:00,1.1,東南東,3.1,北北東,26,84.7,0,0,0.5,50.5
265,2020-09-07T04:24:00,1.2,東南東,3.1,北北東,26,84.6,0,0,0.5,50.5
266,2020-09-07T04:25:00,1.2,東南東,3.1,北北東,26.1,84.6,0,0,0.5,50.5
267,2020-09-07T04:26:00,1.2,東南東,3.1,北北東,26.1,84.2,0,0,0.5,50.5
268,2020-09-07T04:27:00,1.3,東,3.1,北北東,26.1,83.8,0,0,0.5,50.5
269,2020-09-07T04:28:00,1.3,東,2.8,北東,26,84.1,0,0,0.5,50.5
270,2020-09-07T04:29:00,1.4,東,2.8,北東,26,84.2,0,0,0.5,50.5
271,2020-09-07T04:30:00,1.5,東,2.8,北東,26,84.3,0,0,0.5,50.5
272,2020-09-07T04:31:00,1.4,東北東,2.8,北東,26,84.3,0,0,0.5,50.5
273,2020-09-07T04:32:00,1.3,東北東,2.8,北東,26,84.2,0,0,0.5,50.5
274,2020-09-07T04:33:00,1.3,東北東,2.8,北東,26,84.1,0,0,0.5,50.5
275,2020-09-07T04:34:00,1.4,東北東,2.8,北東,26,84.2,0,0,0.5,50.5
276,2020-09-07T04:35:00,1.4,北東,2.8,北東,25.9,84.4,0,0,0.5,50.5
277,2020-09-07T04:36:00,1.3,北東,2.8,北東,25.9,84.5,0,0,0.5,50.5
278,2020-09-07T04:37:00,1.2,北東,2.8,北東,26,84.3,0,0,0.5,50.5
279,2020-09-07T04:38:00,1.1,北東,2.7,北東,26.1,84.1,0,0,0.5,50.5
280,2020-09-07T04:39:00,1,北東,2.4,北北東,26.1,83.8,0,0,0.5,50.5
281,2020-09-07T04:40:00,1,北東,2.4,北北東,26.1,83.5,0,0,0.5,50.5
282,2020-09-07T04:41:00,1.2,北東,2.6,北北東,26,83.6,0,0,0.5,50.5
283,2020-09-07T04:42:00,1.3,北東,2.7,北東,25.9,84.1,0,0,0.5,50.5
284,2020-09-07T04:43:00,1.4,北東,2.7,北東,25.8,84.6,0,0,0.5,50.5
285,2020-09-07T04:44:00,1.4,北東,2.7,北東,25.9,84.8,0,0,0.5,50.5
286,2020-09-07T04:45:00,1.4,北東,2.7,北東,25.9,84.7,0,0,0.5,50.5
287,2020-09-07T04:46:00,1.5,北東,3,北東,25.8,84.7,0,0,0.5,50.5
288,2020-09-07T04:47:00,1.5,北東,3,北東,25.9,84.7,0,0,0.5,50.5
289,2020-09-07T04:48:00,1.5,北東,3,北東,25.9,84.6,0,0,0.5,50.5
290,2020-09-07T04:49:00,1.7,北東,4.3,東南東,26.1,84.2,0,0,0.5,50.5
291,2020-09-07T04:50:00,1.7,北東,4.3,東南東,26.1,83.9,0,0,0.5,50.5
292,2020-09-07T04:51:00,1.6,東北東,4.3,東南東,26.5,82.4,0,0,0.5,50.5
293,2020-09-07T04:52:00,1.4,東北東,4.3,東南東,26.6,81.3,0,0,0.5,50.5
294,2020-09-07T04:53:00,1.3,東北東,4.3,東南東,26.3,81.5,0,0,0.5,50.5
295,2020-09-07T04:54:00,1.3,東北東,4.3,東南東,26.1,82.6,0,0,0.5,50.5
296,2020-09-07T04:55:00,1.3,東北東,4.3,東南東,26,83.4,0,0,0.5,50.5
297,2020-09-07T04:56:00,1.3,北東,4.3,東南東,26.1,83.7,0,0,0.5,50.5
298,2020-09-07T04:57:00,1.4,北東,4.4,南南西,26.4,83.1,0,0,0.5,50.5
299,2020-09-07T04:58:00,1.5,北東,4.4,南南西,26.3,82.7,0,0,0.5,50.5
300,2020-09-07T04:59:00,1.6,北東,4.4,南南西,26.4,82,0,0,0.5,50.5
301,2020-09-07T05:00:00,1.7,北東,4.4,南南西,26.4,81.7,0,0,0.5,50.5
302,2020-09-07T05:01:00,1.8,東北東,4.4,南南西,26.2,82.2,0,0,0.5,50.5
303,2020-09-07T05:02:00,1.8,北東,4.4,南南西,26.2,83,0,0,0.5,50.5
304,2020-09-07T05:03:00,1.7,北東,4.4,南南西,26.2,82.9,0,0,0.5,50.5
305,2020-09-07T05:04:00,1.8,北北東,4.4,南南西,26.5,82.1,0,0,0.5,50.5
306,2020-09-07T05:05:00,1.8,北北東,4.4,南南西,26.9,80.7,0,0,0.5,50.5
307,2020-09-07T05:06:00,1.9,北東,4.4,南南西,26.9,80,0,0,0.5,50.5
308,2020-09-07T05:07:00,1.7,北北東,4.3,北北東,26.8,79.7,0,0,0.5,50.5
309,2020-09-07T05:08:00,1.6,北,4.3,北北東,26.9,79.5,0,0,0.5,50.5
310,2020-09-07T05:09:00,1.5,北,4.3,北北東,27.2,78.4,0,0,0.5,50.5
311,2020-09-07T05:10:00,1.4,北,4.3,北北東,27.4,77.4,0,0,0.5,50.5
312,2020-09-07T05:11:00,1.4,北,4.3,北北東,27.4,76.8,0,0,0.5,50.5
313,2020-09-07T05:12:00,1.4,北,4.3,北北東,27.4,76.2,0,0,0.5,50.5
314,2020-09-07T05:13:00,1.4,北北東,4.3,北北東,27.4,76.3,0,0,0.5,50.5
315,2020-09-07T05:14:00,1.4,北東,4.3,北北東,27.4,76.3,0,0,0.5,50.5
316,2020-09-07T05:15:00,1.4,北東,4.3,北北東,27.3,76.3,0,0,0.5,50.5
317,2020-09-07T05:16:00,1.4,北東,3.4,北東,27.3,76.5,0,0,0.5,50.5
318,2020-09-07T05:17:00,1.4,東北東,3.4,北東,27.3,76.5,0,0,0.5,50.5
319,2020-09-07T05:18:00,1.4,東,3.7,南東,27.3,76.7,0,0,0.5,50.5
320,2020-09-07T05:19:00,1.6,東,6.5,南東,27.3,76.7,0,0,0.5,50.5
321,2020-09-07T05:20:00,1.7,東,7.3,南南東,27.4,76.4,0,0,0.5,50.5
322,2020-09-07T05:21:00,1.8,東,7.9,南南東,27.4,76.1,0,0,0.5,50.5
323,2020-09-07T05:22:00,2,東,7.9,南南東,27.4,76.1,0,0,0.5,50.5
324,2020-09-07T05:23:00,2.3,東,7.9,南南東,27.5,75.6,0,0,0.5,50.5
325,2020-09-07T05:24:00,2.5,東南東,7.9,南南東,27.7,75,0,0,0.5,50.5
326,2020-09-07T05:25:00,2.8,東南東,7.9,南南東,27.8,74.5,0,0,0.5,50.5
327,2020-09-07T05:26:00,2.9,東南東,7.9,南南東,27.9,74.1,0,0,0.5,50.5
328,2020-09-07T05:27:00,3,東南東,7.9,南南東,27.7,74.4,0,0,0.5,50.5
329,2020-09-07T05:28:00,3.1,東南東,7.9,南南東,27.7,74.5,0,0,0.5,50.5
330,2020-09-07T05:29:00,2.8,東南東,7.9,南南東,27.5,75.1,0,0,0.5,50.5
331,2020-09-07T05:30:00,2.6,東南東,7.9,南南東,27.4,75.6,0,0,0.5,50.5
332,2020-09-07T05:31:00,2.7,東南東,7.5,南南東,27.4,75.7,0,0,0.5,50.5
333,2020-09-07T05:32:00,2.6,東南東,7.5,南南東,27.6,75.4,0,0,0.5,50.5
334,2020-09-07T05:33:00,2.3,南東,7.5,南南東,27.6,75.3,0,0,0.5,50.5
335,2020-09-07T05:34:00,2.2,南東,7.3,南,27.5,75.7,0,0,0.5,50.5
336,2020-09-07T05:35:00,1.8,南東,5.8,南,27.4,76.1,0,0,0.5,50.5
337,2020-09-07T05:36:00,1.9,南東,5.8,南,27.3,76.6,0,0,0.5,50.5
338,2020-09-07T05:37:00,1.8,南東,5.8,南,27.3,76.8,0,0,0.5,50.5
339,2020-09-07T05:38:00,2,南東,6,東南東,27.4,76.5,0,0,0.5,50.5
340,2020-09-07T05:39:00,2.3,南東,8,南南東,27.3,76.7,0,0,0.5,50.5
341,2020-09-07T05:40:00,2.5,南東,8,南南東,27.5,76.3,0,0,0.5,50.5
342,2020-09-07T05:41:00,2.5,南東,8,南南東,27.5,76.3,0,0,0.5,50.5
343,2020-09-07T05:42:00,2.8,南東,8,南南東,27.5,76.1,0,0,0.5,50.5
344,2020-09-07T05:43:00,2.8,南東,8,南南東,27.6,75.8,0,0,0.5,50.5
345,2020-09-07T05:44:00,3,南東,8,南南東,27.6,75.6,0,0,0.5,50.5
346,2020-09-07T05:45:00,3.3,南東,8.5,南東,27.6,75.5,0,0,0.5,50.5
347,2020-09-07T05:46:00,3.2,南東,8.5,南東,27.5,75.8,0,0,0.5,50.5
348,2020-09-07T05:47:00,3.5,南東,8.5,南東,27.4,76.1,0,0,0.5,50.5
349,2020-09-07T05:48:00,3.6,南東,9.4,南東,27.5,76,0,0,0.5,50.5
350,2020-09-07T05:49:00,3.7,南東,9.4,南東,27.5,75.8,0,0,0.5,50.5
351,2020-09-07T05:50:00,3.8,南東,9.4,南東,27.6,75.6,0,0,0.5,50.5
352,2020-09-07T05:51:00,4,南東,9.4,南東,27.6,75.6,0,0,0.5,50.5
353,2020-09-07T05:52:00,4.2,南東,12.1,南東,27.6,75.6,0,0,0.5,50.5
354,2020-09-07T05:53:00,4.4,南東,12.1,南東,27.7,75.1,0,0,0.5,50.5
355,2020-09-07T05:54:00,4.5,南東,12.1,南東,27.8,74.9,0,0,0.5,50.5
356,2020-09-07T05:55:00,4.5,南東,12.1,南東,27.7,75.1,0,0,0.5,50.5
357,2020-09-07T05:56:00,5,南東,12.8,東南東,27.9,74.6,0,0,0.5,50.5
358,2020-09-07T05:57:00,5.1,南東,12.8,東南東,28,73.8,0,0,0.5,50.5
359,2020-09-07T05:58:00,4.7,南東,12.8,東南東,27.9,73.9,0,0,0.5,50.5
360,2020-09-07T05:59:00,4.4,南東,12.8,東南東,27.8,74.3,0,0,0.5,50.5
361,2020-09-07T06:00:00,4.2,東南東,12.8,東南東,27.6,75,0,0,0.5,50.5
362,2020-09-07T06:01:00,3.8,東南東,12.8,東南東,27.5,75.4,0,0,0.5,50.5
363,2020-09-07T06:02:00,3.5,東南東,12.8,東南東,27.6,75.5,0,0,0.5,50.5
364,2020-09-07T06:03:00,3.2,東南東,12.8,東南東,27.6,75.6,0,0,0.5,50.5
365,2020-09-07T06:04:00,3.1,東南東,12.8,東南東,27.6,75.7,0,0,0.5,50.5
366,2020-09-07T06:05:00,3.1,東南東,12.8,東南東,27.6,75.6,0,0,0.5,50.5
367,2020-09-07T06:06:00,2.7,東南東,8.1,南東,27.6,75.9,0,0,0.5,50.5
368,2020-09-07T06:07:00,2.9,東南東,9.8,南南東,27.6,75.6,0,0,0.5,50.5
369,2020-09-07T06:08:00,3.2,南東,9.8,南南東,27.7,75.4,0,0,0.5,50.5
370,2020-09-07T06:09:00,3.4,南東,9.8,南南東,27.6,75.4,0,0,0.5,50.5
371,2020-09-07T06:10:00,3.5,南東,9.8,南南東,27.6,75.4,0,0,0.5,50.5
372,2020-09-07T06:11:00,3.8,南東,9.8,南南東,27.6,75.8,0,0,0.5,50.5
373,2020-09-07T06:12:00,4,南東,9.8,南南東,27.7,75.6,0,0,0.5,50.5
374,2020-09-07T06:13:00,4.1,南東,9.8,南南東,27.8,75.2,0,0,0.5,50.5
375,2020-09-07T06:14:00,4.2,南東,9.8,南南東,27.8,75,0,0,0.5,50.5
376,2020-09-07T06:15:00,4.1,南東,9.8,南南東,27.8,74.9,0,0,0.5,50.5
377,2020-09-07T06:16:00,3.9,南東,9.8,南南東,27.7,75.1,0,0,0.5,50.5
378,2020-09-07T06:17:00,3.5,南東,9,南,27.8,75,0,0,0.5,50.5
379,2020-09-07T06:18:00,3.3,南東,9,南,27.8,74.7,0,0,0.5,50.5
380,2020-09-07T06:19:00,3.2,南東,9,南,27.8,74.8,0,0,0.5,50.5
381,2020-09-07T06:20:00,3.3,南東,9,南,27.8,74.8,0,0,0.5,50.5
382,2020-09-07T06:21:00,3.1,南東,8,南,27.7,75.2,0,0,0.5,50.5
383,2020-09-07T06:22:00,2.9,南東,7.4,南南東,27.7,75.4,0,0,0.5,50.5
384,2020-09-07T06:23:00,2.9,南東,7.4,南南東,27.8,74.9,0,0,0.5,50.5
385,2020-09-07T06:24:00,2.8,南東,6.5,東南東,27.9,74.7,0,0,0.5,50.5
386,2020-09-07T06:25:00,2.8,東南東,6.5,東南東,28,74.2,0,0,0.5,50.5
387,2020-09-07T06:26:00,2.8,東南東,6.5,東南東,28,74.1,0,0,0.5,50.5
388,2020-09-07T06:27:00,2.8,東南東,6.5,東南東,28,74.2,0,0,0.5,50.5
389,2020-09-07T06:28:00,2.9,東南東,6.5,東南東,27.9,74.4,0,0,0.5,50.5
390,2020-09-07T06:29:00,2.9,東南東,6.5,東南東,27.9,74.7,0,0,0.5,50.5
391,2020-09-07T06:30:00,2.7,東南東,6.2,南南東,27.8,75,0,0,0.5,50.5
392,2020-09-07T06:31:00,2.7,東南東,6.2,南南東,27.9,74.8,0,0,0.5,50.5
393,2020-09-07T06:32:00,2.9,東南東,8.9,東南東,27.9,74.9,0,0,0.5,50.5
394,2020-09-07T06:33:00,3.1,東南東,8.9,東南東,28,74.3,0,0,0.5,50.5
395,2020-09-07T06:34:00,3.3,南東,8.9,東南東,28.2,73.5,0,0,0.5,50.5
396,2020-09-07T06:35:00,3.3,東南東,8.9,東南東,28.1,73.6,0,0,0.5,50.5
397,2020-09-07T06:36:00,3.3,東南東,8.9,東南東,28.1,73.8,0,0,0.5,50.5